{"data":{"norad_id":56814,"epoch":"2026-05-25T03:09:42.806016Z","epoch_age_seconds":60840,"freshness":"FRESH","line1":"1 56814U 23078AZ  26145.13174544 -.00000315  00000+0 -18617-4 0  9998","line2":"2 56814  69.9983 151.5910 0003625 260.5951  99.4798 14.98330953164132","mean_motion":14.98330953,"eccentricity":0.0003625,"inclination_deg":69.9983,"raan_deg":151.591,"arg_perigee_deg":260.5951,"mean_anomaly_deg":99.4798,"bstar":-1.8617e-5,"rev_number":16413,"period_min":96.106937997696,"perigee_km":569.53350001744,"apogee_km":574.57238772675,"semimajor_km":6950.1899438721,"source":"CELESTRAK","updated_at":"2026-05-25T13:38:18.161176Z"}}